Home > Weather > Lautoka > Past weeks

Flag for Fiji Past Weather in Lautoka, Fiji — Yesterday and Last 2 Weeks

Now
77 °F

Sprinkles. Partly cloudy.


Feels Like: 78 °F
Forecast: 77 / 83 °F
Wind: 5 mph from Southeast

Location: Nandi

Current Time: Jun 30, 2016 at 6:48:58 PM

Latest Report: Jun 30, 2016 at 6:00 PM


Visibility: N/A

Pressure: 29.86 "Hg

Humidity: 89%

Dew Point: 73 °F

Location of LautokaLocation

Past Weather in Lautoka — Graph

°F

Lautoka Temperature Yesterday

Maximum temperature yesterday: 84 °F (at 11:00 AM)
Minimum temperature yesterday: 63 °F (at 6:00 AM)
Average temperature yesterday: 74 °F

High & Low Weather Summary for the Past Weeks

 TemperatureHumidityPressure
High90 °F (Jun 18, 3:00 PM)100% (Jun 16, 2:00 AM)30.01 "Hg (Jun 16, 2:00 AM)
Low63 °F (Jun 22, 5:00 AM)39% (Jun 21, 11:00 AM)29.83 "Hg (Jun 15, 5:00 PM)
Average76 °F76%29.93 "Hg
* Reported Jun 15 5:00 PM — Jun 30 5:00 PM, Lautoka, Weather by CustomWeather, © 2016

Note: Actual official high and low records may vary slightly from our data, if they occured in-between our weather recording intervals... More about our weather records

Advertising

Lautoka Weather History for the Previous 24 Hours

Scroll right to see more
 ConditionsComfort  
Time TempWeatherWind HumidityBarometerVisibility
5:00 PM
Thu, Jun 30
79 °FBroken clouds.6 mph79%29.86 "HgN/A
4:00 PM79 °FBroken clouds.6 mph79%29.86 "HgN/A
3:00 PM81 °FBroken clouds.6 mph79%29.86 "HgN/A
2:00 PM81 °FBroken clouds.8 mph74%29.89 "HgN/A
1:00 PM82 °FPartly sunny.9 mph70%29.92 "HgN/A
12:00 PM82 °FPartly sunny.9 mph70%29.95 "HgN/A
11:00 AM82 °FPartly sunny.7 mph70%29.95 "HgN/A
10:00 AM84 °FScattered clouds.No wind62%29.98 "HgN/A
9:00 AM81 °FScattered clouds.5 mph70%29.98 "HgN/A
8:00 AM73 °FPassing clouds.6 mph83%29.95 "HgN/A
7:00 AM68 °FPassing clouds.6 mph94%29.95 "HgN/A
6:00 AM68 °FPassing clouds.3 mph94%29.95 "HgN/A
5:00 AM68 °FPassing clouds.6 mph94%29.92 "HgN/A
4:00 AM68 °FPassing clouds.3 mph94%29.92 "HgN/A
3:00 AM68 °FPassing clouds.3 mph88%29.95 "HgN/A
2:00 AM70 °FPassing clouds.6 mph88%29.95 "HgN/A
1:00 AM70 °FPassing clouds.5 mph88%29.95 "HgN/A
12:00 AM70 °FPassing clouds.6 mph88%29.95 "HgN/A
11:00 PM
Wed, Jun 29
70 °FPassing clouds.3 mph88%29.98 "HgN/A
10:00 PM72 °FPassing clouds.No wind83%29.98 "HgN/A
9:00 PM73 °FPassing clouds.3 mph78%29.98 "HgN/A
8:00 PM75 °FPassing clouds.5 mph74%29.98 "HgN/A
7:00 PM77 °FPassing clouds.6 mph65%29.95 "HgN/A
6:00 PM79 °FPassing clouds.8 mph65%29.95 "HgN/A
Weather by CustomWeather, © 2016

See weather overviewHow to use our weather pages